Yatton Keynell, United Kingdom

2:15 PM BST on April 23, 2019 (GMT +0100)
Yatton Keynell

Weather History for 03740 - August, 1998

Change the Weather History Date:

Thursday, August 6, 1998

  Actual Average Record
Temperature  
Mean Temperature 59 °F -  
Max Temperature 68 °F 67 °F - ()
Min Temperature 50 °F 52 °F - ()
Degree Days  
Heating Degree Days 6    
Growing Degree Days 9 (Base 50)    
Moisture  
Dew Point 52 °F    
Average Humidity 80    
Maximum Humidity 100    
Minimum Humidity 60    
Precipitation  
Precipitation 0.00 in 0.08 in - ()
Sea Level Pressure  
Sea Level Pressure 30.30 in    
Wind  
Wind Speed 9 mph ()    
Max Wind Speed 18 mph    
Max Gust Speed -    
Visibility 6.2 miles    
Events      
T = Trace of Precipitation, MM = Missing Value Source: Averaged Metar Reports

Daily Weather History Graph

Daily Weather History Graph

Search for Another Location

Airport or City:

Astronomy

Aug. 06, 1998 Rise Set
Actual Time 5:38 AM BST 8:47 PM BST
Civil Twilight 4:59 AM BST 9:27 PM BST
Nautical Twilight 4:07 AM BST 10:18 PM BST
Astronomical Twilight 2:58 AM BST 11:26 PM BST
Moon 7:38 PM BST (8/6) 3:45 AM BST (8/6)
Length of Visible Light 16h 27m
Length of Day
15h 09m
Waxing Gibbous, 97% of the Moon is Illuminated
Aug 6
Waxing Gibbous
Aug 8
Full
Aug 14
Last Quarter
Aug 22
New
Aug 30
First Quarter

Hourly Weather History & Observations

Time (BST) Temp. Dew Point Humidity Pressure Visibility Wind Dir Wind Speed Gust Speed Precip Events Conditions
12:50 AM 53.6 °F 50.0 °F 88% 30.39 in - WSW 9.2 mph - N/A   Clear
1:50 AM 53.6 °F 50.0 °F 88% 30.36 in - West 8.1 mph - N/A   Clear
2:50 AM 51.8 °F 48.2 °F 88% 30.36 in - West 6.9 mph - N/A   Clear
3:50 AM 51.8 °F 48.2 °F 88% 30.33 in - SSW 4.6 mph - N/A   Clear
4:50 AM 50.0 °F 48.2 °F 94% 30.33 in - SSW 3.5 mph - N/A   Clear
5:50 AM 50.0 °F 48.2 °F 94% 30.30 in 6.2 mi SSW 5.8 mph - N/A   Partly Cloudy
6:50 AM 50.0 °F 50.0 °F 100% 30.30 in 6.2 mi SSW 4.6 mph - N/A   Partly Cloudy
7:50 AM 55.4 °F 51.8 °F 88% 30.30 in 6.2 mi SW 11.5 mph - N/A   Partly Cloudy
8:50 AM 59.0 °F 53.6 °F 82% 30.33 in 6.2 mi WSW 11.5 mph - N/A   Scattered Clouds
9:50 AM 60.8 °F 53.6 °F 77% 30.30 in 6.2 mi WSW 13.8 mph - N/A   Partly Cloudy
10:50 AM 62.6 °F 53.6 °F 72% 30.30 in 6.2 mi WSW 15.0 mph - N/A   Partly Cloudy
11:50 AM 64.4 °F 53.6 °F 68% 30.30 in 6.2 mi WSW 16.1 mph - N/A   Partly Cloudy
12:50 PM 66.2 °F 53.6 °F 64% 30.30 in 6.2 mi WSW 18.4 mph - N/A   Partly Cloudy
1:50 PM 66.2 °F 53.6 °F 64% 30.30 in 6.2 mi WSW 17.3 mph - N/A   Partly Cloudy
2:50 PM 68.0 °F 53.6 °F 60% 30.30 in 6.2 mi WSW 16.1 mph - N/A   Partly Cloudy
3:50 PM 68.0 °F 53.6 °F 60% 30.27 in 6.2 mi West 17.3 mph - N/A   Partly Cloudy
4:50 PM 66.2 °F 53.6 °F 64% 30.27 in 6.2 mi WSW 18.4 mph - N/A   Scattered Clouds
5:50 PM 64.4 °F 55.4 °F 73% 30.27 in 6.2 mi West 15.0 mph - N/A   Scattered Clouds
6:50 PM 62.6 °F 53.6 °F 72% 30.27 in 6.2 mi West 12.7 mph - N/A   Scattered Clouds
7:50 PM 60.8 °F 55.4 °F 82% 30.27 in 6.2 mi WSW 13.8 mph - N/A   Mostly Cloudy
8:50 PM 59.0 °F 53.6 °F 82% 30.24 in 6.2 mi WSW 8.1 mph - N/A   Mostly Cloudy
9:50 PM 57.2 °F 53.6 °F 88% 30.27 in 6.2 mi WSW 11.5 mph - N/A   Scattered Clouds
10:50 PM 57.2 °F 53.6 °F 88% 30.27 in 6.2 mi West 11.5 mph - N/A   Scattered Clouds
11:50 PM 55.4 °F 53.6 °F 94% 30.27 in 6.2 mi West 10.4 mph - N/A   Scattered Clouds